Regional Weather Roundup
Issued by NWS

Home | Current Version | Previous Version | Text Only | Print | Product List | Glossary On
Versions: 1 2 3 4 5 6 7 8 9 10 11 12 13 14 15 16 17 18 19 20 21 22 23 24 25 26 27 28 29 30 31 32 33 34 35 36 37 38 39 40 41 42 43 44 45 46 47 48 49 50
000
ASUS44 KFWD 260315
RWRTX
NORTH TEXAS HOURLY WEATHER ROUNDUP
NATIONAL WEATHER SERVICE FORT WORTH TX
1000 PM CDT THU AUG 25 2016

NOTE: "FAIR" INDICATES FEW OR NO CLOUDS BELOW 12,000 FEET WITH NO
SIGNIFICANT WEATHER AND/OR OBSTRUCTIONS TO VISIBILITY.

TXZ118-119-260400-
DALLAS/FORT WORTH METROPLEX

CITY           SKY/WX    TMP DP  RH WIND       PRES   REMARKS
DFW AIRPORT    MOCLDY    85  71  63 SE9       30.02R HX  90
DALLAS LOVE    PTCLDY    86  72  62 SE10      30.02R HX  92
FTW MEACHAM    CLEAR     86  69  56 SE9       30.03R HX  90
DAL-EXECUTIVE  CLEAR     83  73  72 SE8       30.03R
FTW-ALLIANCE   PTCLDY    81  68  64 SE7       30.02R
FTW-SPINKS     PTCLDY    79  71  78 CALM      30.06R
ARLINGTON      PTCLDY    82  72  71 SE6       30.04R
GRAND PRAIRIE  PTCLDY    84  70  62 SE3       30.04R
ADDISON        CLEAR     86  72  62 SE10      30.03R HX  92
MESQUITE       PTCLDY    79  73  82 SE5       30.03R
LANCASTER      CLEAR     81  73  76 SE3       30.03R
$$

TXZ091>094-102>105-117-120-121-131>134-260400-
NORTH CENTRAL TEXAS

CITY           SKY/WX    TMP DP  RH WIND       PRES   REMARKS
SHRMAN/DENISON CLOUDY    84  72  67 SE10      30.05R
GAINESVILLE      N/A     78  70  75 S5        30.05R
BOWIE          CLEAR     78  68  72 SE3       30.04R
BRIDGEPORT     CLEAR     80  68  67 S7        30.05R
DECATUR        PTCLDY    81  65  58 SE8       30.05R
DENTON         PTCLDY    80  71  74 SE7       30.02R
MCKINNEY       MOCLDY    81  73  76 SE6       30.04R
GREENVILLE     PTCLDY    79  70  73 E8G16     30.06R
ROCKWALL       PTCLDY    81  72  73 SE5       30.03R
TERRELL        PTCLDY    82  72  71 E9        30.04R
WAXAHACHIE     CLEAR     80  74  79 CALM      30.04R
CLEBURNE       PTCLDY    82  73  74 E8        30.06R
GRANBURY       CLEAR     84  69  62 SE5       30.05R
$$

TXZ083>090-098>101-113>116-127>130-139>142-154-155-260400-
WESTERN NORTH TEXAS

CITY           SKY/WX    TMP DP  RH WIND       PRES   REMARKS
WICHITA FALLS  CLEAR     80  66  62 SE8       30.02R
WF-KICKAPOO    CLEAR     83  65  55 SE10      30.04R
VERNON         CLEAR     84  60  43 SE9       30.02R
ABILENE        CLEAR     80  60  50 SE12      30.06R
ABILENE-DYESS  CLEAR     82  61  48 E10       30.05R
CISCO          CLEAR     79  63  57 SE8       30.08R
BRECKENRIDGE   CLEAR     81  61  49 S9        30.04R
GRAHAM         CLEAR     82  65  56 SE7       30.02R
MINERAL WELLS  CLEAR     78  68  71 SE7       30.02R
STEPHENVILLE   PTCLDY    79  67  67 CALM      30.09R
COMANCHE       CLOUDY    77  68  73 SE6       30.07R
BROWNWOOD      MOCLDY    77  66  69 E8        30.07R
COLEMAN        CLEAR     82  60  47 SE8       30.08R
$$

TXZ143>147-156>162-174-175-260400-
CENTRAL TEXAS

CITY           SKY/WX    TMP DP  RH WIND       PRES   REMARKS
WACO           MOCLDY    83  73  72 E8        30.02R
WACO-MCGREGOR  CLOUDY    84  73  69 SE7       30.03R HX  90
HILLSBORO      PTCLDY    81  73  78 E7        30.04R
CORSICANA      PTCLDY    81  75  82 E5        30.04R
MEXIA          PTCLDY    79  74  86 SE5       30.03R
HEARNE         CLOUDY    80  73  78 CALM      30.02S
CAMERON        CLOUDY    82  75  79 SE5       30.02R
TEMPLE         CLOUDY    84  73  69 SE12      30.03R HX  90
KILLEEN        CLOUDY    81  71  72 SE6       30.03R
KILLEEN-SKYLRK CLOUDY    84  73  69 SE7       30.03R HX  90
FORT HOOD      CLOUDY    82  71  68 SE5       30.01R
GATESVILLE     MOCLDY    81  72  74 CALM      30.06R
HAMILTON       PTCLDY    80  70  72 SE3       30.07R
LAMPASAS       MOCLDY    78  73  85 CALM      30.05R
$$

TXZ095>097-106>112-122>126-135>138-148>153-164>167-260400-
EAST TEXAS

CITY           SKY/WX    TMP DP  RH WIND       PRES   REMARKS
PARIS          CLOUDY    75  66  73 SE10      30.07R
SULPHUR SPRNGS CLOUDY    78  72  81 SE8       30.09R
MOUNT PLEASANT CLOUDY    76  74  96 E6        30.09R
GILMER         CLOUDY    75  70  84 NE3       30.08R
TYLER          CLOUDY    80  71  74 SE16      30.07R
LONGVIEW       LGT RAIN  74  73  97 SE12      30.07R
MARSHALL         N/A    N/A N/A N/A MISG        N/A
ATHENS         CLOUDY    79  70  73 E12G20    30.05R
PALESTINE      CLOUDY    81  74  78 E18G25    30.07R
JACKSONVILLE   HVY RAIN  74  73  98 SE10G17   30.12R
HENDERSON      DRIZZLE   73  72  98 SE10      30.11S
CENTER         CLOUDY    76  75  95 CALM      30.13R
NACOGDOCHES    CLOUDY   N/A N/A N/A E5        30.09S
LUFKIN         LGT RAIN  74  73  97 N8        30.09R
$$

SUPPLEMENTAL OBSERVATIONS (CENTRAL)

CITY           SKY/WX    TMP DP  RH WIND       PRES   REMARKS
DENISON DAM      N/A     82  68  61 S5          N/A
CADDO GRASSLND   N/A     79  70  73 SE3         N/A
PAT MAYSE LAKE   N/A     79  72  78 E3          N/A
GREENVILLE       N/A     79  72  78 SE8G16      N/A
CEDAR HILL       N/A     81  73  78 SE2         N/A
ATHENS           N/A     81  73  78 SE15        N/A
LAKE LIMESTONE   N/A     79  75  89 E1          N/A
MCGREGOR         N/A     82  72  69 SE5         N/A
TEMPLE           N/A     82  72  69 SE7         N/A
$$

SUPPLEMENTAL OBSERVATIONS (WEST)

CITY           SKY/WX    TMP DP  RH WIND       PRES   REMARKS
MILLERS CREEK    N/A     81  66  61 SE7         N/A
POSSUM KINGDOM   N/A     82  63  51 SE5         N/A
LBJ GRASSLAND    N/A     82  66  57 SE7         N/A
GRANBURY         N/A     82  68  61 SE6         N/A
COMANCHE         N/A     77  66  69 SE5         N/A
HAMBY            N/A     79  59  50 SE9         N/A
IVIE RESERVOIR   N/A     79  59  50 SE8         N/A
COLORADO BEND    N/A     79  66  65 S5          N/A
$$

SUPPLEMENTAL OBSERVATIONS (EAST)

CITY           SKY/WX    TMP DP  RH WIND       PRES   REMARKS
CLARKSVILLE      N/A     75  68  78 SE6         N/A
TEXARKANA        N/A     75  73  94 E1          N/A
LINDEN           N/A     75  72  88 E3          N/A
CADDO LAKE       N/A     73  68  83 CALM        N/A
GILMER           N/A     75  70  83 NE2         N/A
HENDERSON        N/A     73  70  88 SE6G15      N/A
S SABINE NF      N/A     75  73  94 CALM        N/A
$$

SUPPLEMENTAL OBSERVATIONS ARE A COLLECTION OF AUTOMATED INSTRUMENTS
THAT ARE MAINTAINED BY A VARIETY OF FEDERAL AND STATE AGENCIES.
CERTAIN ELEMENTS...SUCH AS HUMIDITY VALUES AND SUSTAINED WIND
SPEEDS...MAY BE APPROXIMATED.





USA.gov is the U.S. government's official web portal to all federal, state and local government web resources and services.